map of DNK home
Great Circle Mapper logo
DNK - Airport
Location
City:  Dnepropetrovsk, Dnipropetrovsk, Ukraine
Name:Dnepropetrovsk International Airport
ICAO / IATA:UKDD / DNK

Details
Type:Airport (Aerodrome, Airfield)
Use:International (customs port of entry)
Latitude:4821'26"N (48.357222)
Longitude:3506'02"E (35.100556)
Datum:WGS 1984
Elevation:481 ft (147 m)
Variation:7.60E (WMM2015 magnetic declination)
0.11 annual change
Runways:1
Longest:9320 × 144 ft (2841 × 44 m), paved

Time
Time Zone:UTC+2 (DST+3)
Local Time:

Weather
METAR:UKDD 020200Z 19003MPS CAVOK 18/12 Q1012 08090070 NOSIG
TAF:UKDD 010508Z 0106/0206 11004MPS 9999 BKN040
TEMPO 0106/0115 16007MPS BKN030CB
TEMPO 0115/0206 VRB07G12MPS 3100 -TSRA BKN020CB
BECMG 0202/0204 23007MPS TX27/0112Z TN12/0203Z

Related Locations
Nearby:
Farthest:CHT: 10902 mi / 17545 km
Waitangi [Tuuta], Chatham Islands, NZ

Find:

   beyond  
but within

Other Information
Maps:
NOTAMs:
Links:
Sources:

  
flag of Ukraine
flag of Dnipropetrovsk
  

Sectional Chart

Flight Planning
at skyvector.com

Satellite Image

Google Maps Satellite view

 

Copyright © 2004-2015 Karl L. Swartz. All rights reserved.
The Great Circle Mapper name and logo are trademarks of the Great Circle Mapper.
All other trademarks mentioned herein belong to their respective owners.
Please see credits for attibutions and further copyright information.

  Follow gcmap on Facebook Follow gcmap on Twitter Follow gcmap on Google+

hCard Microformat

Geo Microformat